To NAV CANADA Home Page Login to a new session Search on AWWS site Disclaimer Vers la page française équivalente Tips FAQ What's new on the site To the Forecasts and Observations / NOTAM section To "File a Flight Plan" website Publications and other links Update of the User's profile FIC Telephone Numbers My Weather Data Folder Route Weather Data Regional Weather Data Local Weather Data To the Forecasts and Observations / NOTAM section
Request Generated 02/17/2019 at 02:21:48 UTC . Weather information available at that time is displayed.


Go to a specific product

Save this request

NOTAM

NOTAM


SIGMET
To the Product Selector

SIGMETS GFACN32

GFACN32 - No SIGMET bulletins in effect



AIRMET
To the Product Selector

AIRMETS GFACN32

GFACN32 - No AIRMET bulletins in effect



PIREP
To the Product Selector

FIR_WINNIPEG (WG)

WG - PIREP not available



METAR/TAF
To the Product Selector

REGINA INTL/SK    

METAR CYQR 170200Z 10007KT 2SM -SN OVC021 M14/M16 A3003 RMK SC8 /S02/ SLP223=
SPECI CYQR 170149Z 09006KT 2SM -SN OVC027 M14/M16 A3003 RMK SC8 SLP220=
SPECI CYQR 170105Z 15004KT 1 1/2SM -SN OVC014 M14/M16 A3001 RMK SC8 SLP215=
METAR CYQR 170100Z 15003KT 2 1/2SM -SN OVC023 M14/M16 A3001 RMK SC8 SLP214=
METAR CYQR 170000Z 12005KT 8SM -SN DRSN OVC028 M14/M16 A2998 RMK SC8 SLP206=

TAF AMD CYQR 170120Z 1701/1724 12008KT 5SM -SN OVC025 TEMPO 1701/1706
1SM -SN OVC015
FM170600 09012KT P6SM SCT030 BKN100 TEMPO 1706/1714 2SM -SHSN
VV015
FM171400 09010KT P6SM SCT040 BKN100 TEMPO 1714/1724 5SM -SN
SCT020 BKN040
RMK NXT FCST BY 170600Z=

MOOSE JAW/AIR VICE MARSHAL C.M. MCEWEN/SK    

CYMJ - METAR not available

*** REMARK        : Forecast period has ended; this was the last TAF issued
*** REMARQUE : La période de prévision est échue; ceci était le dernier TAF qui a été émis
TAF AMD CYMJ 160056Z 1600/1612 FCST CNCLD DUE END OF FLYING PROGRAM
RMK NXT FCST WILL BE ISSUED AT 181115Z=


RADAR PCPN RATE
To the Product Selector
Pacific Canada      Western Canada     

SATELLITE VISIBLE
To the Product Selector
West Canada      

SATELLITE INFRARED
To the Product Selector
West Canada     

GRAPHICAL FA CLOUDS & WEATHER FORECASTS
To the Product Selector
Graphical FA gfacn32      

GRAPHICAL FA ICING, TURBULENCE & FREEZING LEVEL FORECASTS
To the Product Selector
Graphical FA gfacn32      

FDTEXT Low Level FD. Temperatures are not forecast for the 3,000-foot level.
To the Product Selector
STN YQR - REGINA. SASK for use 3000 6000 9000 12000 18000
FDCN01 CWAO FCST BASED ON 161200 DATA VALID 161800 17-21 1422-11 2109-12 2214-17 2216-31
FDCN02 CWAO FCST BASED ON 161200 DATA VALID 170000 21-06 1324-14 0905-12 9900-17 2014-31
FDCN03 CWAO FCST BASED ON 161200 DATA VALID 171200 06-17 1015-16 1113-18 0714-18 1606-32



Your time UTC time
Weather data provided by Environment Canada and NAV CANADA